Flag for Syria Weather past 2 weeks in Damascus, Syria

Now
68 °F

Clear.


Feels Like: 68 °F
Forecast: 68 / 94 °F
Wind: 16 mph from Southwest

Location: Damascus Int. Airport

Current Time: Jul 25, 2014 at 5:06:56 AM

Latest Report: Jul 25, 2014 at 4:00 AM


Visibility: 10 mi

Pressure: 29.74 "Hg

Humidity: 73%

Dew point: 59 °F

Location of DamascusLocation

Historic Weather in Damascus — Graph

°F

Damascus temperature yesterday

Maximum temperature yesterday: 99 °F (at 2:00 PM)
Minimum temperature yesterday: 68 °F (at 5:00 AM)
Average temperature yesterday: 82 °F

Past Weeks' High & Low Weather Summary

 TemperatureHumidityPressure
High109 °F (Jul 12, 3:00 PM)94% (Jul 17, 6:00 AM)29.92 "Hg (Jul 17, 6:00 AM)
Low64 °F (Jul 17, 6:00 AM)10% (Jul 12, 3:00 PM)29.68 "Hg (Jul 21, 1:00 AM)
Average81 °F46%29.80 "Hg
* Reported Jul 10 4:00 AM — Jul 25 4:00 AM, Damascus, Weather by CustomWeather, © 2014

Note: Actual official high and low records may vary slightly from our data, if they occured in-between our weather recording intervals... More about our weather records

Advertising

Damascus weather history for previous 24 hours

 ConditionsComfort  
Time TempWeatherWind HumidityBarometerVisibility
4:00 AM
Jul 25
68 °FClear.16 mph73%29.74 "Hg10 mi
3:00 AM68 °FClear.18 mph69%29.74 "Hg10 mi
2:00 AM70 °FClear.18 mph60%29.77 "Hg10 mi
1:00 AM72 °FClear.23 mph57%29.77 "Hg10 mi
12:00 AM72 °FClear.21 mph53%29.77 "Hg10 mi
11:00 PM
Jul 24
75 °FClear.23 mph41%29.77 "Hg10 mi
10:00 PM77 °FClear.21 mph36%29.77 "Hg10 mi
9:00 PM82 °FClear.16 mph28%29.74 "Hg10 mi
8:00 PM86 °FSunny.18 mph27%29.74 "Hg10 mi
7:00 PM91 °FSunny.13 mph24%29.74 "Hg10 mi
6:00 PM95 °FSunny.21 mph18%29.71 "Hg10 mi
5:00 PM97 °FSunny.21 mph16%29.71 "Hg10 mi
4:00 PM99 °FSunny.18 mph16%29.71 "Hg10 mi
3:00 PM99 °FSunny.21 mph18%29.74 "Hg10 mi
2:00 PM99 °FSunny.12 mph18%29.74 "Hg10 mi
1:00 PM95 °FSunny.9 mph23%29.77 "Hg10 mi
12:00 PM93 °FSunny.7 mph28%29.80 "Hg10 mi
11:00 AM86 °FSunny.12 mph40%29.80 "Hg10 mi
10:00 AM82 °FSunny.12 mph48%29.83 "Hg10 mi
9:00 AM77 °FSunny.14 mph69%29.83 "Hg10 mi
8:00 AM73 °FSunny.14 mph65%29.83 "Hg10 mi
7:00 AM70 °FSunny.14 mph78%29.83 "Hg10 mi
6:00 AM68 °FClear.12 mph88%29.83 "Hg10 mi
5:00 AM68 °FClear.16 mph83%29.83 "Hg10 mi
Weather by CustomWeather, © 2014

See weather overviewHow to use our weather pages